Flag for U.S.A. Weather past 2 weeks in Columbus, Georgia, U.S.A.

Now
53 °F

Clear.


Feels Like: 53 °F
Forecast: 52 / 75 °F
Wind: No wind

Location: Columbus Metropolitan Airport

Current Time: Oct 21, 2014 at 5:17:41 AM

Latest Report: Oct 21, 2014 at 4:51 AM


Visibility: 10 mi

Pressure: 29.99 "Hg

Humidity: 93%

Dew point: 51 °F

Location of ColumbusLocation

Historic Weather in Columbus — Graph

°F

Columbus temperature yesterday

Maximum temperature yesterday: 74 °F (at 2:51 PM)
Minimum temperature yesterday: 49 °F (at 5:51 AM)
Average temperature yesterday: 62 °F

Past Weeks' High & Low Weather Summary

 TemperatureHumidityPressure
High90 °F (Oct 9, 3:51 PM)100% (Oct 8, 7:59 AM)30.15 "Hg (Oct 8, 7:59 AM)
Low48 °F (Oct 6, 7:51 AM)27% (Oct 6, 2:51 PM)29.78 "Hg (Oct 14, 11:51 AM)
Average69 °F68%30.00 "Hg
* Reported Oct 6 3:51 AM — Oct 21 3:51 AM, Columbus, Weather by CustomWeather, © 2014

Note: Actual official high and low records may vary slightly from our data, if they occured in-between our weather recording intervals... More about our weather records

Advertising

Columbus weather history for previous 24 hours

 ConditionsComfort  
Time TempWeatherWind HumidityBarometerVisibility
3:51 AM
Oct 21
55 °FClear.No wind90%29.99 "Hg10 mi
2:51 AM54 °FClear.No wind93%30.00 "Hg10 mi
1:51 AM56 °FClear.No wind90%30.00 "Hg10 mi
12:51 AM58 °FClear.No wind84%30.00 "Hg10 mi
11:51 PM
Oct 20
58 °FClear.No wind84%30.01 "Hg10 mi
10:51 PM60 °FClear.No wind80%30.01 "Hg10 mi
9:51 PM64 °FClear.No wind70%30.01 "Hg10 mi
8:51 PM64 °FClear.No wind70%29.99 "Hg10 mi
7:51 PM68 °FSunny.No wind59%29.99 "Hg10 mi
6:51 PM71 °FSunny.No wind49%29.98 "Hg10 mi
5:51 PM73 °FSunny.6 mph44%29.98 "Hg10 mi
4:51 PM74 °FPassing clouds.No wind46%29.98 "Hg10 mi
3:51 PM74 °FSunny.No wind43%29.99 "Hg10 mi
2:51 PM74 °FSunny.No wind43%30.01 "Hg10 mi
1:51 PM72 °FSunny.No wind44%30.03 "Hg10 mi
12:51 PM71 °FSunny.3 mph49%30.07 "Hg10 mi
11:51 AM69 °FSunny.5 mph57%30.10 "Hg10 mi
10:51 AM63 °FSunny.No wind70%30.11 "Hg10 mi
9:51 AM60 °FSunny.No wind75%30.11 "Hg10 mi
8:51 AM53 °FSunny.No wind89%30.11 "Hg10 mi
7:51 AM50 °FClear.No wind89%30.09 "Hg10 mi
6:51 AM51 °FClear.No wind86%30.09 "Hg10 mi
5:51 AM49 °FClear.No wind93%30.08 "Hg10 mi
Weather by CustomWeather, © 2014

See weather overviewHow to use our weather pages